Wind_Speed
30 31 31 33 36 37 38 39 39 40 40 39 37 35 34 32 30 30 30 31 32 30 29 30 31 31 30 28 27 25 23 23 22 21 20 19 17 16 16 15 14 13 13 12 11 10 10 10 11 11 11 11 11 10 11 11 11 11 11 12 13 12 12
27 30 31 31 34 37 38 39 39 40 40 40 38 36 35 34 31 30 30 31 32 31 30 31 32 32 31 30 28 26 25 24 23 23 22 20 19 17 16 16 15 14 13 12 11 10 10 10 11 11 11 11 10 9 9 10 10 10 11 12 12 12 12
23 27 30 31 33 36 38 38 39 40 40 40 40 38 36 34 32 29 29 30 31 31 31 31 32 33 32 31 30 28 26 26 25 24 23 21 20 18 16 16 16 14 14 13 12 11 10 10 12 12 11 11 10 9 8 9 10 11 12 12 12 12 12
22 25 28 30 32 34 37 39 39 40 41 41 40 39 37 35 32 28 27 28 29 31 31 31 32 32 32 32 32 30 28 27 27 25 24 22 19 18 17 17 17 15 15 14 12 12 11 11 12 12 11 11 11 10 9 9 10 11 12 13 13 13 13
17 22 24 26 30 33 36 38 39 40 41 41 41 39 37 36 33 29 27 26 27 29 29 29 30 31 31 31 32 31 29 29 28 27 26 23 20 19 19 18 18 16 15 14 13 13 12 12 12 12 12 12 12 11 10 11 11 12 13 13 13 13 13
9 17 20 23 26 30 34 37 40 42 42 41 40 40 39 37 35 32 28 27 26 27 28 28 28 30 30 29 30 32 31 29 29 28 27 25 22 21 21 19 19 17 15 15 14 13 13 12 12 13 13 13 13 12 12 12 13 14 14 14 14 13 12
3 10 17 20 21 24 27 28 31 37 40 41 40 39 39 39 37 34 31 29 28 28 29 29 28 29 29 29 30 32 32 31 30 29 29 27 25 23 22 21 20 18 17 16 15 15 15 14 12 12 14 15 15 14 14 14 15 17 16 15 14 12 12
1 6 12 16 16 19 23 23 23 24 28 33 37 40 40 39 39 38 35 32 31 30 30 30 30 29 29 29 30 32 32 32 31 30 29 29 27 25 24 23 21 19 18 17 16 15 15 15 14 16 18 19 18 17 17 17 18 18 17 16 16 14 12
1 5 9 12 15 18 21 24 26 26 26 26 29 34 39 41 40 40 38 35 34 33 32 31 31 29 28 29 31 32 32 32 32 31 30 29 28 27 25 24 22 20 19 18 17 15 15 16 18 19 19 18 17 16 16 17 18 18 17 17 17 14 13
4 2 7 10 15 17 18 21 24 28 32 31 28 29 33 39 42 42 40 38 37 36 33 31 31 30 28 28 30 31 32 32 32 32 32 31 29 28 26 25 23 21 20 19 16 14 16 18 18 18 18 18 17 16 15 15 17 17 16 16 15 14 13
4 1 4 7 12 14 16 20 23 27 32 34 34 32 30 33 37 41 41 40 39 39 36 33 32 31 29 27 29 31 32 32 32 32 32 31 30 28 26 25 24 22 21 18 15 15 18 19 18 17 18 18 17 16 16 15 15 15 15 15 15 15 15
6 2 3 6 10 11 13 17 21 26 31 35 38 39 37 34 32 34 38 40 41 40 39 36 34 33 32 28 28 30 32 33 32 31 31 31 30 29 27 25 24 22 21 19 16 17 20 20 19 19 19 18 17 16 16 15 15 15 16 16 16 17 17
7 4 4 6 8 10 12 16 19 23 28 34 38 40 41 41 37 33 34 38 41 42 41 39 37 35 34 32 29 29 30 32 32 31 30 29 29 27 26 25 23 23 22 20 18 19 20 20 20 20 20 19 18 17 16 15 15 15 17 17 17 18 17
6 5 4 5 5 7 10 13 17 21 26 33 36 36 37 41 42 39 35 35 39 42 43 42 40 38 36 34 32 29 28 29 30 31 30 28 27 26 24 22 22 23 23 21 20 21 21 20 20 19 19 18 18 17 16 16 15 15 16 17 17 17 17
5 6 4 3 4 6 8 11 14 17 24 32 35 33 34 37 41 42 40 36 36 40 44 44 43 41 39 37 35 31 28 27 28 29 29 28 27 25 23 20 19 21 23 23 22 23 22 21 19 18 18 18 18 18 17 16 15 15 15 16 17 17 17
3 4 6 5 5 6 7 8 11 13 19 26 31 32 32 33 37 41 44 41 37 38 42 45 44 42 41 39 36 31 28 26 27 28 28 27 26 24 22 19 17 19 21 23 23 22 22 21 20 20 19 19 19 18 18 17 16 15 14 15 16 17 17
2 3 6 6 5 6 8 7 8 11 14 19 24 28 30 31 33 37 42 43 41 39 40 44 45 43 42 40 36 32 28 26 26 27 26 24 23 24 23 20 18 19 20 22 23 21 21 21 22 21 20 20 20 20 19 17 16 15 15 15 16 17 17
1 3 3 4 4 5 7 7 6 7 10 13 17 21 25 28 29 32 36 40 42 41 40 42 45 44 42 39 36 32 29 27 26 27 26 23 22 23 23 21 19 20 20 21 22 21 20 21 22 21 20 20 20 19 18 17 16 16 15 16 16 17 17
2 2 4 6 6 6 7 8 7 7 8 11 15 17 20 23 24 26 29 34 37 38 38 41 45 46 43 39 37 34 30 27 27 28 27 25 24 24 23 22 21 21 21 21 21 21 21 21 20 20 19 19 18 18 17 17 17 17 17 17 18 18 19
3 4 5 7 9 8 8 9 9 9 8 9 12 16 19 21 22 22 24 27 31 34 37 39 42 45 44 40 37 35 32 29 28 29 29 27 26 25 25 24 23 22 21 21 22 22 22 21 21 20 20 19 18 19 18 18 18 18 18 18 19 20 21
3 4 5 7 9 10 9 10 10 11 10 9 9 13 17 21 23 23 23 25 26 29 33 36 39 42 44 42 39 37 35 32 31 31 31 29 28 28 27 26 24 23 23 24 24 24 24 24 23 22 21 21 20 20 20 19 19 19 19 19 20 21 21
4 5 6 6 8 10 9 10 11 11 11 10 10 11 15 18 23 25 26 27 27 27 28 32 38 42 42 41 39 38 37 36 33 32 32 31 31 31 30 29 28 27 27 27 26 26 26 24 24 23 22 21 21 21 21 21 21 21 20 21 21 22 23
5 6 7 7 9 10 9 11 12 11 10 11 11 11 13 15 20 25 27 28 29 30 31 33 38 42 42 40 39 38 38 38 38 37 36 34 34 34 34 34 32 30 29 28 26 26 24 23 23 23 21 21 23 23 23 23 23 22 22 22 23 24 24
4 6 8 9 10 10 9 10 11 10 9 11 11 11 12 14 18 23 28 30 31 32 34 35 36 38 39 40 40 39 39 39 36 36 38 38 38 38 38 36 34 31 28 26 25 24 22 22 23 22 20 21 24 24 23 23 23 24 25 25 25 26 26
4 7 9 9 9 10 9 8 9 10 11 12 12 12 14 17 19 23 28 31 33 34 35 35 35 35 35 38 39 39 39 38 34 32 35 37 37 39 39 35 32 30 28 25 23 22 20 19 21 22 21 22 23 22 22 24 24 25 27 27 28 28 26
6 7 8 8 9 10 9 8 8 9 11 12 14 15 17 21 24 26 29 32 35 37 38 36 34 34 35 37 37 37 36 35 32 31 32 33 33 33 32 28 25 25 24 22 20 19 17 16 18 19 19 19 19 19 22 25 26 27 26 27 29 28 24
7 7 8 10 11 11 8 8 10 10 10 11 12 15 19 21 22 24 28 32 35 37 38 36 34 34 36 36 37 36 33 31 30 30 31 34 34 30 25 21 21 21 20 19 19 19 18 16 16 16 14 15 15 15 18 22 24 24 22 21 24 26 23
8 8 11 13 12 10 8 9 11 10 9 9 10 13 18 19 17 16 20 28 35 35 34 35 35 35 36 36 36 36 31 28 29 30 30 31 31 27 23 20 19 18 17 17 17 17 17 16 14 12 10 10 9 9 11 14 16 16 17 17 18 19 18
10 10 12 12 10 9 9 10 11 9 8 8 8 11 16 16 12 10 10 19 29 31 30 31 33 34 35 35 35 34 30 26 25 25 26 27 26 24 22 18 16 17 17 16 17 16 14 11 9 7 6 5 4 2 2 3 4 5 8 10 11 12 13
11 10 11 11 9 9 9 9 9 8 9 10 9 9 11 10 8 6 7 15 23 25 26 28 30 32 33 31 31 32 29 26 23 21 20 18 18 17 16 15 15 16 15 15 15 15 14 14 14 12 10 9 8 6 5 4 4 4 4 4 6 9 12
8 9 9 8 8 8 8 7 8 7 8 10 10 8 7 5 6 9 12 17 20 22 24 27 29 31 29 26 25 27 27 24 22 18 15 13 13 14 16 18 19 19 18 18 17 17 19 19 16 13 11 10 9 7 6 5 5 5 5 5 6 6 7
7 7 7 7 7 8 7 5 5 5 6 9 9 7 4 2 7 11 15 17 18 20 23 27 28 28 25 23 24 25 25 23 21 20 19 19 19 20 21 22 22 22 22 21 20 20 19 18 16 14 13 14 14 13 12 11 11 11 10 10 9 9 9
6 5 5 6 6 6 4 4 3 2 4 5 6 4 1 4 8 12 15 17 17 19 21 23 24 24 24 24 24 24 24 24 25 25 25 26 26 26 25 23 23 23 23 21 21 20 19 19 18 18 18 18 18 17 15 13 12 12 11 11 10 9 9
3 3 3 4 4 3 3 3 1 2 4 4 5 5 4 6 9 11 13 15 16 17 19 22 26 28 29 29 28 27 28 29 31 31 31 31 30 28 26 24 23 23 23 21 20 21 22 22 21 19 19 18 17 15 14 13 12 11 10 10 9 8 8
1 2 2 3 3 1 1 2 3 4 6 8 8 8 9 10 11 11 12 13 13 14 17 22 26 29 31 31 32 32 33 34 34 34 34 34 33 30 27 26 25 26 26 24 22 21 21 21 20 19 18 17 16 15 14 13 12 12 11 10 9 8 8
5 6 6 6 7 6 5 5 6 7 9 11 12 13 14 15 16 15 15 16 17 19 21 24 27 30 31 32 34 35 36 36 36 35 34 34 34 33 31 29 27 26 26 25 23 21 20 19 20 19 18 17 17 16 15 15 14 13 12 11 11 10 10
8 10 12 12 12 11 9 9 10 11 14 15 16 19 21 22 22 22 22 22 23 25 26 27 30 33 35 35 35 35 36 36 35 34 34 33 34 34 34 32 29 26 25 24 24 23 22 22 21 20 18 17 17 17 17 16 15 15 14 13 12 12 12
13 15 15 14 14 13 12 11 11 13 16 17 19 21 23 23 24 24 24 24 25 26 27 28 30 32 32 33 33 33 32 32 32 33 33 33 33 33 33 33 32 30 27 26 25 24 23 22 21 20 19 17 17 16 16 15 14 13 13 12 12 12 11
Wind_Direction
204 205 205 202 200 200 202 204 205 205 205 205 207 209 210 212 216 219 221 222 222 223 218 212 211 213 213 214 217 217 217 218 220 222 224 226 228 228 228 230 231 231 233 231 229 232 232 228 227 231 234 236 239 240 243 248 251 250 248 250 255 259 263
203 204 206 206 203 203 205 207 207 207 207 207 208 210 211 213 215 218 221 222 223 224 221 216 214 215 216 216 218 220 218 219 221 223 226 227 229 230 231 234 234 233 233 233 234 237 237 233 230 232 236 237 237 241 247 251 254 256 257 258 260 262 264
205 206 207 208 208 206 206 208 208 209 209 209 209 211 212 214 216 218 221 222 222 223 223 221 219 218 218 217 219 221 221 220 222 224 227 228 228 229 231 234 235 235 235 236 238 239 239 235 232 234 237 233 230 238 252 259 262 263 262 261 261 262 264
210 210 210 212 213 211 209 209 209 210 211 212 212 213 215 216 217 219 221 222 221 221 221 222 222 221 220 219 219 220 221 221 222 225 227 229 228 229 231 233 234 235 235 235 239 242 243 240 236 237 238 233 231 240 255 264 267 266 263 261 262 263 265
214 212 212 214 216 216 213 211 211 211 212 213 214 216 217 217 218 219 221 224 222 221 221 222 223 224 223 222 221 220 220 221 223 225 226 228 229 229 232 232 232 233 233 234 237 240 244 246 245 246 244 242 241 245 253 260 266 268 261 257 260 264 266
217 211 210 213 216 217 216 215 215 214 214 214 214 216 217 218 219 219 221 224 224 222 221 222 224 225 225 225 222 220 219 221 223 225 226 228 229 229 230 230 230 232 233 234 235 236 238 241 247 252 251 250 251 254 261 266 269 266 257 253 258 265 267
214 214 212 216 217 216 217 218 217 214 214 215 215 216 217 219 220 221 221 223 224 223 221 222 224 225 226 225 223 220 219 221 224 226 227 228 229 231 229 228 228 230 233 236 236 235 234 236 244 251 250 247 248 251 254 257 259 258 252 250 253 256 258
192 222 213 217 222 223 223 226 227 222 215 213 214 215 217 220 222 222 222 224 225 225 224 224 225 227 228 227 224 222 221 222 224 226 229 230 231 231 229 228 229 229 233 238 239 238 239 240 241 243 242 239 239 241 242 245 252 255 254 251 251 246 240
61 234 221 214 219 227 228 228 232 232 224 216 215 217 218 220 223 224 224 225 226 227 227 227 228 229 230 229 226 225 224 224 224 226 229 231 232 232 231 230 230 231 235 239 240 240 240 240 240 242 244 244 245 248 250 252 255 258 259 253 252 249 236
45 256 235 220 219 225 224 224 228 229 227 224 223 224 222 222 224 226 227 227 228 229 229 228 228 229 230 229 228 227 226 226 226 226 228 231 233 234 233 232 231 232 235 236 233 232 234 239 243 247 251 253 255 258 263 263 259 261 262 254 250 254 246
6 333 250 238 231 225 217 217 221 223 224 225 226 228 225 224 225 226 228 230 230 231 231 229 228 228 228 229 229 228 228 228 228 228 228 230 232 234 235 234 233 231 228 226 223 225 234 240 245 251 255 255 256 260 266 267 262 260 259 252 248 251 249
335 330 246 244 239 231 220 216 218 219 221 223 226 227 225 224 225 226 230 233 233 234 232 229 229 229 229 229 230 229 229 229 230 231 231 231 232 234 234 235 234 228 221 218 221 230 238 243 247 250 255 256 255 258 263 264 261 257 253 251 254 253 249
320 337 283 261 247 235 224 217 218 222 224 224 225 227 227 225 225 227 231 234 235 235 234 231 230 230 230 230 230 230 229 230 231 232 233 233 232 233 234 235 235 229 222 219 225 235 241 246 249 252 257 261 258 258 261 260 258 257 255 257 260 256 248
316 350 327 298 282 259 240 229 227 227 227 225 223 225 228 227 226 226 229 233 235 235 234 232 231 231 232 231 230 231 230 230 231 233 234 234 234 233 233 233 234 233 228 224 229 237 242 245 248 253 259 262 260 260 263 261 258 258 259 260 259 253 246
332 10 16 345 316 291 270 256 248 237 230 226 223 224 227 227 226 226 226 230 235 235 234 233 233 233 233 231 230 231 232 232 232 232 233 234 233 231 228 227 230 232 230 228 230 235 240 242 244 249 256 260 261 263 264 263 261 260 261 260 255 251 248
354 31 45 29 357 330 305 277 267 260 244 232 227 227 228 228 227 226 226 228 232 235 234 233 233 234 234 232 231 231 233 234 233 231 230 230 229 225 220 219 224 228 228 226 226 230 235 239 242 245 250 256 262 264 263 263 263 260 260 261 255 250 248
22 34 41 27 6 346 335 316 293 281 266 248 237 233 233 232 227 225 225 227 230 232 234 234 233 234 233 232 231 231 233 234 232 227 223 222 222 219 214 213 219 223 222 220 221 227 234 241 244 245 248 255 262 263 260 261 262 259 258 258 253 248 245
21 352 356 351 342 332 325 320 311 292 271 257 245 238 237 235 233 230 229 229 230 230 231 234 234 234 233 232 230 230 231 232 228 221 214 214 218 217 214 214 218 222 221 222 225 231 238 243 244 244 247 254 258 257 256 258 260 259 258 256 253 249 245
157 276 304 313 312 310 307 303 298 285 265 250 241 236 234 233 235 238 234 231 231 230 229 232 234 234 232 229 228 228 229 230 226 218 213 215 218 219 217 218 221 224 226 229 233 237 243 245 244 243 249 254 254 253 254 257 258 258 259 257 254 249 247
194 242 280 291 291 291 291 291 289 281 274 258 238 230 226 226 230 234 232 229 228 227 227 229 232 234 232 228 227 228 228 229 227 220 217 219 221 221 221 221 224 227 229 234 238 241 243 243 241 242 248 252 252 253 253 254 256 258 259 259 255 251 249
261 273 287 290 296 299 292 285 283 278 275 271 250 234 227 224 224 227 228 228 226 226 229 230 231 234 233 229 227 228 229 229 227 224 223 223 223 222 223 223 224 226 231 236 239 238 236 235 234 236 242 248 249 250 250 250 253 256 258 258 257 254 252
322 325 325 313 309 310 302 290 288 281 270 265 257 245 236 230 227 226 226 226 226 226 230 231 230 230 231 231 230 230 231 231 229 226 225 226 226 224 223 223 222 224 230 232 232 233 232 231 233 233 237 243 246 246 248 250 251 254 254 255 256 256 254
348 337 330 321 307 301 294 287 288 285 268 258 254 248 242 238 233 230 227 225 224 224 225 227 228 228 229 232 234 234 234 233 231 229 228 229 227 223 221 222 222 225 228 227 227 229 230 233 238 238 235 238 241 241 243 248 251 253 254 253 253 254 253
334 318 315 314 308 300 289 282 286 285 268 258 256 251 246 243 239 236 232 228 225 224 224 225 227 229 230 231 233 235 235 231 228 228 229 227 224 220 219 220 222 224 226 226 227 230 234 238 242 240 234 232 236 238 242 247 251 255 257 257 254 252 252
310 310 314 314 311 310 309 301 290 279 270 267 265 260 254 250 246 241 237 233 228 227 226 225 225 227 229 229 230 234 235 233 230 229 226 221 216 215 215 216 218 222 224 226 227 230 236 240 239 237 234 233 237 243 250 254 254 254 256 256 254 250 245
315 319 324 319 313 320 328 321 299 283 278 278 278 273 265 257 251 245 240 236 231 228 228 226 225 225 225 225 226 228 230 231 230 227 226 224 220 216 213 212 216 221 224 224 223 225 230 234 234 234 237 241 246 252 256 256 252 249 248 248 250 248 237
326 333 332 321 317 324 331 321 309 299 288 284 284 280 277 276 272 260 247 238 233 229 227 225 225 225 224 222 225 228 227 226 226 224 224 226 226 220 214 212 216 222 228 230 229 227 227 229 233 238 246 255 258 258 256 253 250 247 245 243 246 248 241
331 334 326 323 325 329 328 318 312 306 293 291 296 296 297 300 300 283 256 237 230 227 225 223 222 223 222 220 222 227 227 225 225 222 219 221 222 220 214 209 211 220 229 230 229 227 225 227 232 238 244 250 253 255 250 246 245 245 248 245 240 242 244
334 336 329 332 338 337 331 321 314 310 306 310 316 313 309 307 303 296 261 226 219 219 221 223 220 221 223 222 220 221 222 221 218 215 215 217 218 217 214 210 213 222 223 218 217 217 214 205 192 184 181 176 168 157 199 214 210 219 235 234 219 208 209
340 340 335 338 342 338 335 326 319 318 320 328 338 327 309 296 279 267 226 212 214 215 217 221 221 220 221 219 215 215 215 211 207 206 207 206 206 210 209 202 203 204 194 188 192 189 171 150 139 139 136 127 119 108 98 108 126 138 153 164 165 168 175
342 338 334 336 340 342 340 328 321 322 325 335 346 339 311 266 212 196 189 195 206 210 211 213 214 213 210 204 199 198 194 187 185 186 180 171 178 191 187 177 172 165 156 155 158 151 141 133 130 130 125 118 116 116 110 107 112 121 127 124 124 137 148
341 338 338 341 349 354 345 321 314 324 332 341 350 346 314 216 165 158 162 173 188 197 199 199 198 196 190 179 171 170 168 162 158 155 149 147 154 159 156 151 148 143 140 142 140 135 131 128 125 122 119 115 115 114 108 102 100 101 102 102 103 107 109
346 344 347 356 10 5 331 297 302 355 6 1 12 19 245 174 144 138 145 153 160 166 173 179 180 177 173 169 164 160 158 155 150 145 141 140 140 138 136 137 137 135 134 135 134 130 126 123 122 121 119 116 115 113 110 108 108 108 106 103 102 103 101
350 0 12 23 29 3 289 267 264 82 76 71 76 89 123 145 141 145 151 152 153 156 158 161 161 158 157 160 159 155 151 148 146 143 140 137 135 132 131 131 130 127 123 123 125 125 123 121 121 121 120 120 118 117 117 116 114 111 108 105 102 96 90
114 96 78 80 83 91 211 171 138 122 107 103 107 111 113 117 124 138 147 148 152 153 145 141 140 138 138 140 140 139 138 137 136 136 134 131 130 128 125 121 120 119 116 114 116 119 121 122 122 122 122 121 118 117 115 113 111 108 107 108 104 97 95
142 126 122 120 115 114 117 116 116 115 111 113 119 118 113 111 113 118 122 126 129 128 126 127 127 125 125 126 126 127 128 128 128 129 128 127 128 127 124 121 119 120 119 118 119 120 121 121 119 118 119 119 118 118 118 115 116 116 116 117 114 109 110
144 133 128 124 118 115 114 111 109 109 112 117 120 117 115 115 116 117 119 122 124 124 123 124 124 123 123 123 123 123 125 126 127 129 130 130 130 131 129 127 125 123 122 121 121 120 118 116 115 114 116 118 119 121 121 120 119 119 119 120 117 112 111
146 137 129 124 121 121 120 118 114 113 113 115 115 115 116 118 119 121 123 124 123 123 124 123 122 121 121 121 122 123 124 127 129 132 132 132 133 133 132 131 129 125 121 119 118 117 115 115 115 117 118 118 118 118 119 119 119 119 116 114 112 112 111
Height
1506 1509 1511 1512 1513 1515 1516 1518 1520 1522 1525 1527 1529 1531 1533 1535 1536 1538 1539 1541 1542 1544 1546 1547 1549 1550 1552 1553 1554 1556 1557 1558 1559 1560 1561 1562 1563 1565 1566 1567 1568 1569 1570 1571 1571 1572 1573 1574 1574 1575 1575 1576 1577 1577 1578 1578 1579 1579 1579 1580 1580 1580 1580
1505 1507 1509 1511 1512 1513 1515 1517 1519 1521 1522 1524 1527 1529 1531 1532 1534 1535 1537 1538 1540 1542 1544 1545 1547 1548 1550 1552 1553 1554 1556 1557 1558 1559 1560 1561 1562 1563 1565 1566 1567 1568 1569 1570 1571 1572 1573 1573 1574 1574 1575 1575 1576 1577 1577 1578 1578 1578 1579 1579 1579 1579 1580
1504 1506 1508 1510 1511 1512 1514 1515 1517 1519 1520 1522 1524 1526 1528 1530 1531 1533 1535 1536 1538 1540 1542 1544 1545 1547 1548 1550 1551 1553 1554 1555 1556 1557 1559 1560 1561 1562 1564 1565 1566 1567 1568 1569 1570 1571 1572 1572 1573 1574 1574 1575 1576 1576 1577 1577 1577 1578 1578 1578 1578 1578 1579
1504 1505 1506 1509 1510 1511 1513 1513 1515 1517 1518 1520 1521 1523 1526 1527 1529 1531 1533 1534 1536 1537 1539 1541 1543 1544 1546 1548 1549 1551 1552 1554 1555 1556 1557 1559 1560 1561 1563 1564 1565 1566 1567 1568 1569 1570 1571 1572 1572 1573 1574 1574 1575 1576 1576 1577 1577 1577 1577 1578 1578 1577 1578
1503 1504 1506 1508 1509 1510 1511 1512 1513 1514 1516 1517 1519 1521 1523 1525 1528 1530 1531 1533 1534 1535 1537 1539 1541 1542 1544 1546 1547 1549 1551 1552 1554 1555 1556 1557 1559 1560 1561 1562 1564 1565 1566 1567 1568 1569 1569 1570 1571 1572 1573 1574 1574 1575 1576 1576 1576 1577 1577 1577 1577 1577 1577
1503 1504 1505 1505 1507 1509 1510 1511 1511 1511 1513 1515 1517 1519 1521 1523 1526 1527 1529 1531 1532 1534 1535 1537 1539 1540 1542 1544 1545 1547 1549 1550 1552 1553 1555 1556 1557 1559 1559 1561 1562 1563 1565 1565 1567 1568 1568 1569 1570 1571 1572 1573 1573 1574 1574 1575 1575 1575 1576 1576 1576 1576 1576
1503 1504 1505 1505 1505 1507 1508 1510 1510 1510 1512 1513 1515 1518 1519 1521 1523 1525 1527 1529 1530 1532 1533 1535 1537 1538 1540 1541 1543 1545 1546 1548 1550 1551 1553 1554 1556 1557 1558 1559 1561 1562 1563 1564 1565 1566 1567 1568 1569 1570 1570 1571 1571 1571 1572 1572 1572 1573 1573 1573 1574 1574 1574
1502 1503 1504 1505 1505 1505 1508 1510 1511 1512 1512 1513 1514 1516 1517 1519 1521 1523 1525 1526 1528 1530 1531 1533 1534 1536 1537 1539 1541 1543 1544 1546 1548 1549 1551 1552 1554 1555 1556 1558 1559 1560 1562 1563 1564 1565 1566 1567 1567 1567 1567 1567 1567 1568 1568 1569 1570 1571 1571 1571 1572 1572 1572
1502 1501 1502 1504 1504 1504 1507 1509 1511 1512 1513 1514 1514 1515 1516 1517 1519 1521 1522 1524 1526 1527 1529 1531 1533 1534 1535 1537 1538 1540 1542 1544 1546 1547 1549 1550 1551 1553 1554 1556 1557 1559 1560 1561 1562 1564 1564 1564 1564 1564 1565 1566 1567 1567 1567 1568 1568 1569 1570 1570 1570 1570 1570
1502 1501 1501 1502 1502 1502 1504 1506 1508 1509 1512 1514 1515 1515 1516 1516 1518 1519 1521 1523 1524 1525 1527 1529 1531 1532 1534 1535 1536 1538 1540 1541 1543 1545 1546 1548 1549 1551 1552 1554 1556 1557 1558 1559 1561 1562 1562 1561 1562 1564 1565 1566 1566 1566 1566 1566 1566 1567 1568 1568 1569 1569 1569
1502 1502 1501 1501 1500 1500 1501 1503 1504 1506 1508 1510 1511 1513 1515 1516 1517 1518 1519 1521 1522 1524 1526 1527 1529 1531 1532 1533 1534 1536 1537 1539 1541 1542 1544 1545 1547 1549 1551 1553 1554 1555 1557 1558 1559 1560 1559 1559 1561 1563 1564 1564 1564 1564 1564 1564 1565 1565 1566 1567 1567 1568 1568
1502 1502 1501 1501 1500 1500 1500 1501 1501 1503 1504 1506 1506 1508 1511 1514 1517 1518 1519 1520 1521 1523 1524 1526 1528 1529 1530 1531 1532 1533 1535 1536 1538 1540 1541 1543 1545 1547 1549 1551 1552 1554 1555 1556 1557 1558 1557 1558 1560 1560 1561 1562 1562 1562 1562 1562 1563 1563 1564 1564 1565 1565 1566
1502 1502 1502 1501 1500 1501 1501 1500 1500 1500 1501 1502 1503 1505 1507 1510 1513 1516 1518 1519 1520 1522 1523 1525 1526 1527 1528 1529 1530 1531 1532 1534 1536 1537 1539 1541 1543 1546 1547 1549 1551 1552 1553 1554 1555 1556 1556 1556 1557 1558 1559 1560 1560 1560 1561 1560 1561 1561 1562 1563 1563 1563 1564
1502 1502 1502 1501 1501 1501 1501 1501 1500 1500 1499 1499 1500 1503 1505 1507 1509 1511 1514 1517 1519 1521 1522 1523 1525 1525 1526 1527 1528 1529 1530 1532 1534 1536 1538 1540 1542 1544 1545 1547 1548 1549 1551 1552 1553 1553 1554 1554 1555 1556 1557 1558 1558 1559 1559 1559 1559 1560 1560 1561 1561 1561 1561
1502 1503 1502 1501 1501 1500 1500 1500 1500 1500 1499 1499 1500 1501 1502 1504 1506 1508 1510 1513 1517 1519 1520 1521 1523 1523 1524 1525 1525 1527 1528 1530 1532 1534 1536 1538 1540 1541 1543 1544 1545 1547 1548 1549 1550 1551 1552 1553 1554 1554 1555 1556 1556 1557 1557 1557 1557 1558 1558 1559 1559 1559 1560
1502 1503 1503 1502 1501 1500 1500 1500 1499 1499 1499 1499 1499 1500 1500 1501 1503 1504 1505 1508 1512 1516 1517 1519 1520 1521 1522 1522 1523 1525 1527 1528 1530 1531 1533 1535 1536 1538 1540 1541 1542 1544 1545 1546 1548 1549 1550 1551 1552 1552 1553 1554 1555 1555 1555 1555 1556 1556 1557 1557 1557 1558 1558
1502 1503 1502 1502 1501 1500 1500 1500 1499 1499 1498 1498 1498 1498 1499 1500 1500 1501 1502 1504 1506 1510 1514 1516 1517 1518 1519 1520 1522 1524 1525 1526 1527 1529 1530 1532 1533 1535 1536 1538 1539 1541 1543 1544 1545 1547 1548 1549 1549 1550 1552 1552 1553 1553 1553 1554 1554 1555 1555 1555 1555 1556 1556
1502 1502 1502 1501 1501 1500 1500 1500 1499 1498 1498 1498 1497 1497 1498 1499 1499 1499 1500 1502 1503 1505 1509 1512 1514 1515 1516 1518 1520 1522 1523 1524 1525 1526 1528 1529 1530 1532 1534 1535 1537 1538 1540 1542 1543 1545 1546 1546 1547 1548 1550 1550 1551 1551 1552 1552 1553 1553 1554 1554 1554 1554 1554
1501 1501 1501 1501 1500 1500 1500 1499 1498 1497 1496 1496 1496 1496 1497 1497 1498 1498 1499 1501 1502 1503 1505 1508 1510 1512 1513 1515 1517 1519 1520 1522 1523 1523 1525 1526 1528 1530 1531 1533 1534 1536 1538 1540 1541 1543 1544 1544 1545 1546 1548 1548 1549 1550 1550 1551 1551 1551 1552 1552 1552 1552 1552
1500 1500 1500 1500 1500 1499 1499 1498 1497 1497 1495 1495 1495 1494 1495 1496 1496 1497 1498 1499 1501 1502 1502 1504 1507 1510 1510 1511 1513 1515 1517 1519 1520 1521 1522 1523 1525 1527 1529 1531 1532 1534 1536 1538 1539 1540 1541 1542 1543 1544 1546 1546 1547 1548 1548 1549 1549 1549 1550 1550 1550 1550 1550
1500 1500 1500 1500 1499 1499 1498 1497 1496 1495 1495 1494 1493 1493 1493 1494 1494 1495 1496 1497 1498 1499 1500 1501 1504 1506 1508 1508 1510 1511 1513 1516 1517 1519 1520 1521 1523 1525 1526 1528 1530 1532 1534 1535 1536 1537 1538 1539 1541 1542 1543 1544 1545 1546 1546 1547 1547 1547 1548 1548 1549 1549 1548
1500 1500 1499 1499 1498 1497 1497 1496 1495 1494 1493 1493 1492 1492 1492 1492 1493 1493 1494 1494 1495 1495 1497 1498 1499 1502 1504 1506 1507 1508 1510 1512 1514 1516 1517 1519 1520 1522 1524 1526 1527 1528 1529 1530 1532 1533 1535 1537 1538 1539 1541 1542 1543 1544 1544 1545 1545 1545 1546 1546 1547 1547 1547
1499 1499 1498 1497 1497 1496 1495 1495 1494 1492 1492 1491 1490 1490 1490 1490 1490 1490 1490 1491 1491 1491 1492 1493 1494 1496 1499 1502 1505 1506 1507 1508 1510 1512 1514 1516 1518 1519 1521 1522 1523 1524 1525 1527 1530 1531 1533 1535 1536 1537 1540 1541 1540 1541 1542 1542 1543 1544 1544 1545 1545 1545 1545
1498 1498 1497 1496 1495 1494 1493 1493 1492 1490 1490 1488 1488 1488 1487 1487 1487 1487 1487 1487 1487 1487 1487 1488 1489 1492 1494 1497 1500 1502 1503 1504 1506 1509 1511 1512 1514 1515 1516 1518 1519 1522 1524 1525 1527 1529 1531 1533 1533 1535 1537 1538 1538 1538 1540 1540 1542 1543 1543 1543 1543 1543 1543
1497 1497 1496 1495 1494 1493 1492 1490 1489 1488 1487 1486 1485 1485 1484 1484 1483 1483 1482 1482 1483 1483 1482 1483 1485 1487 1490 1493 1496 1498 1499 1500 1504 1509 1510 1511 1511 1511 1511 1514 1518 1520 1521 1523 1525 1527 1529 1530 1531 1532 1533 1534 1536 1537 1539 1539 1540 1541 1541 1541 1540 1539 1540
1496 1496 1495 1494 1492 1491 1489 1488 1487 1485 1484 1483 1482 1481 1480 1479 1478 1477 1477 1477 1478 1478 1478 1480 1481 1483 1486 1490 1492 1494 1495 1497 1501 1505 1508 1512 1512 1510 1509 1514 1518 1519 1519 1521 1523 1525 1527 1528 1529 1530 1531 1532 1534 1536 1537 1537 1536 1536 1537 1538 1538 1537 1537
1495 1495 1494 1493 1491 1490 1488 1486 1485 1483 1482 1481 1479 1477 1475 1474 1472 1471 1471 1472 1472 1472 1474 1477 1479 1480 1482 1485 1488 1490 1493 1497 1500 1501 1503 1508 1511 1510 1510 1514 1517 1518 1518 1519 1521 1523 1524 1526 1527 1528 1529 1530 1531 1533 1534 1533 1533 1533 1534 1535 1536 1535 1535
1495 1494 1493 1492 1490 1488 1487 1485 1483 1481 1480 1478 1476 1474 1471 1469 1467 1465 1464 1464 1466 1468 1471 1474 1476 1477 1479 1481 1484 1486 1489 1495 1499 1498 1499 1504 1508 1509 1509 1511 1514 1515 1516 1517 1519 1520 1522 1524 1525 1526 1527 1528 1529 1530 1531 1531 1532 1532 1533 1533 1534 1534 1535
1495 1494 1492 1490 1489 1487 1485 1484 1481 1480 1478 1476 1474 1472 1469 1467 1465 1463 1461 1461 1462 1465 1469 1471 1473 1476 1477 1479 1481 1483 1486 1491 1495 1497 1499 1503 1507 1508 1508 1509 1512 1513 1514 1515 1517 1519 1520 1522 1523 1524 1526 1527 1528 1529 1530 1531 1532 1533 1533 1533 1533 1532 1533
1494 1493 1491 1490 1488 1487 1485 1483 1481 1479 1478 1476 1474 1472 1470 1468 1465 1463 1463 1463 1464 1466 1468 1470 1473 1475 1476 1477 1479 1481 1483 1487 1491 1494 1497 1501 1505 1507 1508 1509 1511 1512 1513 1515 1516 1517 1518 1520 1522 1524 1526 1527 1529 1529 1531 1532 1533 1534 1535 1534 1533 1533 1533
1494 1493 1491 1490 1489 1487 1485 1484 1481 1480 1478 1476 1475 1473 1471 1470 1467 1465 1465 1466 1467 1468 1468 1469 1471 1473 1474 1475 1477 1479 1480 1483 1488 1492 1495 1500 1503 1506 1507 1509 1511 1512 1514 1515 1516 1517 1518 1520 1522 1525 1526 1528 1529 1530 1531 1533 1534 1536 1536 1535 1534 1535 1535
1494 1493 1491 1490 1489 1488 1486 1484 1483 1481 1480 1478 1476 1474 1473 1472 1470 1468 1468 1468 1468 1469 1469 1469 1470 1471 1473 1474 1476 1478 1479 1481 1486 1491 1495 1499 1502 1505 1507 1510 1512 1513 1515 1516 1516 1517 1518 1520 1523 1525 1527 1528 1529 1531 1532 1534 1535 1536 1536 1536 1536 1537 1537
1494 1492 1492 1491 1490 1489 1488 1486 1485 1483 1481 1480 1478 1475 1474 1474 1473 1471 1471 1470 1470 1470 1470 1471 1472 1472 1473 1474 1476 1478 1480 1482 1486 1491 1495 1499 1503 1506 1509 1512 1514 1515 1515 1516 1517 1517 1519 1522 1523 1525 1527 1528 1530 1532 1533 1535 1536 1537 1537 1537 1538 1538 1538
1493 1492 1492 1492 1491 1490 1489 1488 1486 1485 1483 1482 1480 1478 1477 1476 1476 1475 1474 1473 1473 1473 1472 1473 1474 1474 1474 1475 1476 1479 1482 1485 1488 1492 1496 1500 1504 1507 1511 1515 1516 1516 1517 1518 1519 1519 1521 1523 1524 1526 1528 1529 1531 1533 1535 1536 1537 1538 1538 1538 1539 1539 1539
1493 1493 1493 1492 1492 1491 1490 1489 1488 1487 1485 1484 1483 1482 1481 1480 1480 1479 1478 1477 1478 1477 1477 1477 1478 1478 1479 1479 1480 1483 1486 1488 1492 1495 1499 1501 1504 1508 1513 1517 1518 1518 1519 1520 1521 1522 1523 1525 1526 1528 1529 1531 1532 1534 1535 1536 1538 1538 1539 1539 1540 1541 1541
1494 1493 1493 1493 1493 1493 1492 1491 1490 1489 1488 1487 1486 1485 1484 1484 1484 1484 1483 1483 1483 1483 1482 1482 1483 1484 1485 1486 1487 1489 1491 1493 1496 1501 1503 1504 1505 1510 1514 1518 1521 1521 1521 1521 1522 1525 1527 1528 1529 1530 1531 1532 1533 1535 1536 1537 1538 1539 1540 1541 1542 1543 1544
1495 1494 1494 1495 1494 1494 1494 1494 1493 1492 1491 1490 1489 1488 1488 1488 1488 1488 1488 1488 1488 1488 1488 1488 1488 1489 1490 1492 1494 1496 1497 1498 1500 1504 1506 1507 1510 1512 1515 1517 1520 1522 1523 1524 1526 1528 1530 1531 1532 1533 1534 1535 1535 1536 1537 1538 1539 1540 1541 1542 1543 1544 1545
1496 1495 1496 1496 1496 1495 1495 1495 1495 1495 1494 1493 1493 1492 1492 1492 1492 1492 1493 1493 1493 1493 1493 1493 1493 1494 1495 1497 1499 1501 1502 1503 1505 1507 1508 1510 1512 1514 1516 1517 1519 1522 1525 1528 1530 1531 1532 1533 1534 1535 1535 1536 1537 1538 1539 1539 1540 1540 1541 1542 1544 1545 1546